Location: Mannheim
(49.4880°N, 8.4650°E)
Time: 09:41:33
(UTC+02:00)

ISS - Pass Details

Date: 25 May 2022
Orbit: 414 x 420 km, 51.6° (Epoch: 30 June)

Event Time Altitude Azimuth Distance (km) Brightness Sun altitude
Rises 23:08:30 0° 289° (WNW) 2,371 0.9 -13.4°
Reaches altitude 10° 23:10:38 10° 285° (WNW) 1,503 -0.3 -13.6°
Maximum altitude 23:13:56 54° 207° (SSW) 512 -3.6 -13.8°
Enters shadow 23:15:23 28° 142° (SE) 807 -2.9 -14.0°
